Satellite: NANOSALD
Catalog number: 37361
Epoch time:      11164.26133611
Element set:    0238
Inclination:      071.9479 deg
RA of node:       042.9478 deg
Eccentricity:    0.0032007
Arg of perigee:   135.3604 deg
Mean anomaly:     224.9404 deg
Mean motion:   15.00358219 rev/day
Decay rate:    1.81075e-03 rev/day^2
Epoch rev:           02153
Checksum:              272

Satellite: FO-70
Catalog number: 37380
Epoch time:      11167.25830072
Element set:    0192
Inclination:      071.9740 deg
RA of node:       041.4222 deg
Eccentricity:    0.0019070
Arg of perigee:   279.1649 deg
Mean anomaly:     080.7346 deg
Mean motion:   14.76364371 rev/day
Decay rate:       1.42e-06 rev/day^2
Epoch rev:           03072
Checksum:              280

/EX
SB KEPS @ AMSAT  $ORB11167.W
Orbital Elements  11167.WEATHER

HR AMSAT ORBITAL ELEMENTS FOR WEATHER SATELLITES
FROM WA5QGD FORT WORTH,TX June 16, 2011
Send Subscribe/unsubscribe to KEPS at http://www.amsat.org/mailman/listinfo/kep
BID: ORB11167.W
TO ALL RADIO AMATEURS BT

Satellite: RESURS
Catalog number: 25394
Epoch time:      11167.12384755
Element set:     821
Inclination:      098.3008 deg
RA of node:       170.2057 deg
Eccentricity:    0.0000431
Arg of perigee:   210.2867 deg
Mean anomaly:     149.8288 deg
Mean motion:   14.24234742 rev/day
Decay rate:       -8.0e-08 rev/day^2
Epoch rev:           67215
Checksum:              283

Satellite: NOAA-10
Catalog number: 16969
Epoch time:      11167.15841516
Element set:     534
Inclination:      098.6174 deg
RA of node:       196.9599 deg
Eccentricity:    0.0011490
Arg of perigee:   226.0351 deg
Mean anomaly:     133.9861 deg
Mean motion:   14.27465153 rev/day
Decay rate:        4.5e-07 rev/day^2
Epoch rev:           28750
Checksum:              319

Satellite: NOAA-11
Catalog number: 19531
Epoch time:      11167.21046906
Element set:     535
Inclination:      098.7523 deg
RA of node:       254.6928 deg
Eccentricity:    0.0010890
Arg of perigee:   187.7320 deg
Mean anomaly:     172.3664 deg
Mean motion:   14.14918875 rev/day
Decay rate:       1.59e-06 rev/day^2
Epoch rev:           17261
Checksum:              313

Satellite: OKEAN-4
Catalog number: 23317
Epoch time:      11167.21984637
Element set:     584
Inclination:      082.5401 deg
RA of node:       014.0426 deg
Eccentricity:    0.0023454
Arg of perigee:   119.2514 deg
Mean anomaly:     241.1050 deg
Mean motion:   14.83086634 rev/day
Decay rate:       4.45e-06 rev/day^2
Epoch rev:           90040
Checksum:              263

Satellite: NOAA-18
Catalog number: 28654
Epoch time:      11167.24940909
Element set:     803
Inclination:      098.9947 deg
RA of node:       118.3940 deg
Eccentricity:    0.0015128
Arg of perigee:   105.4706 deg
Mean anomaly:     254.8139 deg
Mean motion:   14.11483491 rev/day
Decay rate:       -4.2e-07 rev/day^2
Epoch rev:           31279
Checksum:              318

Satellite: NOAA-15
Catalog number: 25338
Epoch time:      11167.25229131
Element set:     853
Inclination:      098.6528 deg
RA of node:       153.4065 deg
Eccentricity:    0.0011733
Arg of perigee:   094.7631 deg
Mean anomaly:     265.4866 deg
Mean motion:   14.24923353 rev/day
Decay rate:        6.7e-07 rev/day^2
Epoch rev:           68059
Checksum:              316

Satellite: NOAA-17
Catalog number: 27453
Epoch time:      11167.26299116
Element set:     323
Inclination:      098.3787 deg
RA of node:       207.0162 deg
Eccentricity:    0.0012253
Arg of perigee:   147.9734 deg
Mean anomaly:     212.2185 deg
Mean motion:   14.24282608 rev/day
Decay rate:       1.34e-06 rev/day^2
Epoch rev:           46652
Checksum:              296

Satellite: NOAA-16
Catalog number: 26536
Epoch time:      11167.29783271
Element set:     335
Inclination:      099.1389 deg
RA of node:       197.8217 deg
Eccentricity:    0.0011103
Arg of perigee:   039.3524 deg
Mean anomaly:     320.8490 deg
Mean motion:   14.12623912 rev/day
Decay rate:        3.3e-07 rev/day^2
Epoch rev:           55323
Checksum:              293

Satellite: NOAA-19
Catalog number: 33591
Epoch time:      11167.31728311
Element set:     994
Inclination:      098.8257 deg
RA of node:       107.4859 deg
Eccentricity:    0.0013990
Arg of perigee:   342.6024 deg
Mean anomaly:     017.4674 deg
Mean motion:   14.11176649 rev/day
Decay rate:       3.83e-06 rev/day^2
Epoch rev:           12126
Checksum:              316

Satellite: NOAA-14
Catalog number: 23455
Epoch time:      11167.46950179
Element set:     518
Inclination:      098.8521 deg
RA of node:       250.1121 deg
Eccentricity:    0.0008608
Arg of perigee:   284.9152 deg
Mean anomaly:     075.1068 deg
Mean motion:   14.13822522 rev/day
Decay rate:        4.0e-07 rev/day^2
Epoch rev:           84897
Checksum:              301

Satellite: NOAA-12
Catalog number: 21263
Epoch time:      11167.52517753
Element set:      32
Inclination:      098.7471 deg
RA of node:       185.3720 deg
Eccentricity:    0.0012176
Arg of perigee:   184.4243 deg
Mean anomaly:     175.6831 deg
Mean motion:   14.25718525 rev/day
Decay rate:        7.7e-07 rev/day^2
Epoch rev:            4431
Checksum:              286

